This is the latest recevied weather packets stored in our database for station/object SQ9MHX-13. If no packets are shown the sender has not sent any weather packets the latest 10 day(s).
| Time | Temp. | Humidity | Pressure | Rain* | Wind** | Luminosity | Snow |
|---|---|---|---|---|---|---|---|
| 1777483251 | 6.11° C | 44% | 990.6 hPa | - | 0 m/s | - | - |
| 1777482953 | 5° C | 45% | 990.2 hPa | - | 0 m/s | - | - |
| 1777482655 | 6.11° C | 43% | 989.8 hPa | - | 0 m/s | - | - |
| 1777482357 | 6.11° C | 43% | 989.6 hPa | - | 0 m/s | - | - |
| 1777482059 | 6.11° C | 42% | 989.3 hPa | - | 0 m/s | - | - |
| 1777481761 | 6.11° C | 41% | 988.8 hPa | - | 0 m/s | - | - |
| 1777481463 | 7.22° C | 41% | 988.5 hPa | - | 0 m/s | - | - |
| 1777481164 | 7.22° C | 39% | 988.1 hPa | - | 0 m/s | - | - |
| 1777480866 | 7.22° C | 39% | 987.8 hPa | - | 0 m/s | - | - |
| 1777480568 | 7.22° C | 39% | 987.6 hPa | - | 0 m/s | - | - |
| 1777479971 | 7.22° C | 40% | 987.1 hPa | - | 0 m/s | - | - |
| 1777479375 | 7.22° C | 38% | 986.8 hPa | - | 0 m/s | - | - |
| 1777479077 | 7.22° C | 38% | 986.8 hPa | - | 0 m/s | - | - |
| 1777478778 | 7.22° C | 37% | 986.1 hPa | - | 0 m/s | - | - |
| 1777478480 | 7.78° C | 37% | 986.4 hPa | - | 0 m/s | - | - |
| 1777478182 | 7.22° C | 37% | 986.1 hPa | - | 0 m/s | - | - |
| 1777477884 | 7.78° C | 36% | 985 hPa | - | 0 m/s | - | - |
| 1777477585 | 7.78° C | 35% | 983.6 hPa | - | 0 m/s | - | - |
| 1777477287 | 8.89° C | 34% | 983.2 hPa | - | 0 m/s | - | - |
| 1777476690 | 10° C | 33% | 982 hPa | - | 0 m/s | - | - |
| 1777476392 | 8.89° C | 30% | 981.9 hPa | - | 0 m/s | - | - |
| 1777476093 | 8.89° C | 30% | 981.9 hPa | - | 0 m/s | - | - |
| 1777475497 | 10° C | 31% | 982.8 hPa | - | 0 m/s | - | - |
| 1777475198 | 8.89° C | 32% | 983.4 hPa | - | 0 m/s | - | - |
| 1777474900 | 7.78° C | 33% | 985.1 hPa | - | 0 m/s | - | - |
* Rain since midnight (hover to see other rain measurements)
** Current wind speed in m/s (hover to see current wind gust speed)